Satellite: DTUSAT-2 Catalog number: 40030 Epoch time: 15072.12236790 Element set: 999 Inclination: 097.9617 deg RA of node: 332.0427 deg Eccentricity: 0.0013868 Arg of perigee: 128.0586 deg Mean anomaly: 232.1823 deg Mean motion: 14.86294614 rev/day Decay rate: 2.699e-05 rev/day^2 Epoch rev: 3951 Checksum: 316
Satellite: ANTELSAT Catalog number: 40034 Epoch time: 15072.16489569 Element set: 999 Inclination: 097.9551 deg RA of node: 326.2825 deg Eccentricity: 0.0061873 Arg of perigee: 067.6380 deg Mean anomaly: 293.1366 deg Mean motion: 14.72347151 rev/day Decay rate: 2.061e-05 rev/day^2 Epoch rev: 3916 Checksum: 321
/EX SB KEPS @ AMSAT $ORB15072.W Orbital Elements 15072.WEATHER
HR AMSAT ORBITAL ELEMENTS FOR WEATHER SATELLITES FROM WA5QGD FORT WORTH,TX March 13, 2015 BID: ORB15072.W TO ALL RADIO AMATEURS BT
Satellite: MET-2/21 Catalog number: 22782 Epoch time: 15072.21045282 Element set: 999 Inclination: 082.5503 deg RA of node: 319.8393 deg Eccentricity: 0.0021298 Arg of perigee: 228.5890 deg Mean anomaly: 247.2148 deg Mean motion: 13.83763734 rev/day Decay rate: 1.0e-08 rev/day^2 Epoch rev: 8732 Checksum: 313
Satellite: OKEAN-4 Catalog number: 23317 Epoch time: 15071.98266382 Element set: 999 Inclination: 082.5408 deg RA of node: 175.7720 deg Eccentricity: 0.0018810 Arg of perigee: 289.5846 deg Mean anomaly: 190.9054 deg Mean motion: 14.86412717 rev/day Decay rate: 1.724e-05 rev/day^2 Epoch rev: 10302 Checksum: 319
Satellite: NOAA-14 Catalog number: 23455 Epoch time: 15071.48222716 Element set: 999 Inclination: 098.7565 deg RA of node: 154.9076 deg Eccentricity: 0.0009391 Arg of perigee: 002.7144 deg Mean anomaly: 124.9153 deg Mean motion: 14.14026951 rev/day Decay rate: 2.5e-07 rev/day^2 Epoch rev: 4186 Checksum: 304
Satellite: NOAA-15 Catalog number: 25338 Epoch time: 15071.79236459 Element set: 999 Inclination: 098.7706 deg RA of node: 070.3817 deg Eccentricity: 0.0011780 Arg of perigee: 088.4800 deg Mean anomaly: 271.8215 deg Mean motion: 14.25578759 rev/day Decay rate: 2.63e-06 rev/day^2 Epoch rev: 87542 Checksum: 347
Satellite: RESURS Catalog number: 25394 Epoch time: 15071.14765241 Element set: 999 Inclination: 098.4537 deg RA of node: 029.7908 deg Eccentricity: 0.0001415 Arg of perigee: 148.8900 deg Mean anomaly: 332.8053 deg Mean motion: 14.24446147 rev/day Decay rate: 5.3e-07 rev/day^2 Epoch rev: 86646 Checksum: 315
Satellite: FENGYUN1 Catalog number: 25730 Epoch time: 15071.88393058 Element set: 999 Inclination: 098.9364 deg RA of node: 036.8309 deg Eccentricity: 0.0020826 Arg of perigee: 064.6362 deg Mean anomaly: 321.1570 deg Mean motion: 14.13056051 rev/day Decay rate: 1.291e-05 rev/day^2 Epoch rev: 81545 Checksum: 305
Satellite: OKEAN-0 Catalog number: 25860 Epoch time: 15071.90944017 Element set: 999 Inclination: 098.0829 deg RA of node: 039.8730 deg Eccentricity: 0.0000930 Arg of perigee: 085.1154 deg Mean anomaly: 296.5017 deg Mean motion: 14.75868977 rev/day Decay rate: 1.021e-05 rev/day^2 Epoch rev: 84178 Checksum: 331
Satellite: NOAA-16 Catalog number: 26536 Epoch time: 15071.72762669 Element set: 999 Inclination: 098.9534 deg RA of node: 137.7524 deg Eccentricity: 0.0011111 Arg of perigee: 141.2254 deg Mean anomaly: 219.0189 deg Mean motion: 14.13080465 rev/day Decay rate: 7.1e-07 rev/day^2 Epoch rev: 74619 Checksum: 314
Satellite: NOAA-17 Catalog number: 27453 Epoch time: 15071.80501517 Element set: 999 Inclination: 098.3341 deg RA of node: 062.6102 deg Eccentricity: 0.0012873 Arg of perigee: 103.8526 deg Mean anomaly: 256.4575 deg Mean motion: 14.24859923 rev/day Decay rate: 1.35e-06 rev/day^2 Epoch rev: 66100 Checksum: 301
Satellite: NOAA-18 Catalog number: 28654 Epoch time: 15071.49206534 Element set: 999 Inclination: 099.1787 deg RA of node: 061.8073 deg Eccentricity: 0.0013497 Arg of perigee: 229.3692 deg Mean anomaly: 130.6306 deg Mean motion: 14.12161388 rev/day Decay rate: 1.66e-06 rev/day^2 Epoch rev: 50542 Checksum: 324
Satellite: NOAA-19 Catalog number: 33591 Epoch time: 15071.50669812 Element set: 999 Inclination: 098.9797 deg RA of node: 021.2096 deg Eccentricity: 0.0015146 Arg of perigee: 082.8773 deg Mean anomaly: 277.4119 deg Mean motion: 14.11889156 rev/day Decay rate: 3.00e-06 rev/day^2 Epoch rev: 31385 Checksum: 338
/EX SB KEPS @ AMSAT $ORB15072.M Orbital Elements 15072.MISC
HR AMSAT ORBITAL ELEMENTS FOR MANNED AND MISCELLANEOUS SATELLITES FROM WA5QGD FORT WORTH,TX March 13, 2015 BID: ORB15072.M TO ALL RADIO AMATEURS BT
Satellite: HUBBLE Catalog number: 20580 Epoch time: 15071.68429470 Element set: 999 Inclination: 028.4703 deg RA of node: 070.2986 deg Eccentricity: 0.0002643 Arg of perigee: 277.8191 deg Mean anomaly: 082.2609 deg Mean motion: 15.06967360 rev/day Decay rate: 1.990e-05 rev/day^2 Epoch rev: 16523 Checksum: 316
Satellite: ISS Catalog number: 25544 Epoch time: 15072.16831369 Element set: 999 Inclination: 051.6457 deg RA of node: 203.6506 deg Eccentricity: 0.0009021 Arg of perigee: 096.1002 deg Mean anomaly: 322.1962 deg Mean motion: 15.55074559 rev/day Decay rate: 1.4466e-04 rev/day^2 Epoch rev: 93309 Checksum: 302
Satellite: CO-58 Catalog number: 28895 Epoch time: 15071.73733382 Element set: 999 Inclination: 097.8229 deg RA of node: 264.5508 deg Eccentricity: 0.0016052 Arg of perigee: 240.2282 deg Mean anomaly: 119.7324 deg Mean motion: 14.62567743 rev/day Decay rate: 1.191e-05 rev/day^2 Epoch rev: 49949 Checksum: 351
Satellite: FALCON Catalog number: 30776 Epoch time: 15071.85734618 Element set: 999 Inclination: 035.4276 deg RA of node: 244.0681 deg Eccentricity: 0.0001334 Arg of perigee: 144.6812 deg Mean anomaly: 355.9832 deg Mean motion: 15.22137472 rev/day Decay rate: 1.2465e-04 rev/day^2 Epoch rev: 44160 Checksum: 304
Satellite: MAST Catalog number: 31126 Epoch time: 15071.91637909 Element set: 999 Inclination: 097.9499 deg RA of node: 044.3923 deg Eccentricity: 0.0089961 Arg of perigee: 235.6960 deg Mean anomaly: 147.7810 deg Mean motion: 14.55882513 rev/day Decay rate: 8.37e-06 rev/day^2 Epoch rev: 41948 Checksum: 357
Satellite: CAPE1 Catalog number: 31130 Epoch time: 15071.10587796 Element set: 999 Inclination: 097.9715 deg RA of node: 040.6554 deg Eccentricity: 0.0096218 Arg of perigee: 257.9840 deg Mean anomaly: 101.0562 deg Mean motion: 14.55261804 rev/day Decay rate: 1.198e-05 rev/day^2 Epoch rev: 41876 Checksum: 320
Satellite: COMPASS Catalog number: 32787 Epoch time: 15071.79886333 Element set: 999 Inclination: 097.6639 deg RA of node: 122.4121 deg Eccentricity: 0.0013512 Arg of perigee: 019.5199 deg Mean anomaly: 340.6533 deg Mean motion: 14.90018005 rev/day Decay rate: 3.681e-05 rev/day^2 Epoch rev: 37215 Checksum: 310
Satellite: AAUSAT2 Catalog number: 32788 Epoch time: 15071.79078574 Element set: 999 Inclination: 097.6646 deg RA of node: 123.7591 deg Eccentricity: 0.0012863 Arg of perigee: 016.9697 deg Mean anomaly: 343.1949 deg Mean motion: 14.90977840 rev/day Decay rate: 3.787e-05 rev/day^2 Epoch rev: 37223 Checksum: 374
Satellite: DO-64 Catalog number: 32789 Epoch time: 15072.13538588 Element set: 999 Inclination: 097.6858 deg RA of node: 133.6233 deg Eccentricity: 0.0010430 Arg of perigee: 358.0939 deg Mean anomaly: 053.6796 deg Mean motion: 14.98163042 rev/day Decay rate: 8.158e-05 rev/day^2 Epoch rev: 37269 Checksum: 363
Satellite: CO-66 Catalog number: 32791 Epoch time: 15071.89700812 Element set: 999 Inclination: 097.6637 deg RA of node: 120.6324 deg Eccentricity: 0.0014444 Arg of perigee: 024.3051 deg Mean anomaly: 335.8844 deg Mean motion: 14.88231750 rev/day Decay rate: 2.891e-05 rev/day^2 Epoch rev: 37199 Checksum: 330
Satellite: RS-30 Catalog number: 32953 Epoch time: 15071.97457538 Element set: 999 Inclination: 082.5032 deg RA of node: 034.0671 deg Eccentricity: 0.0017664 Arg of perigee: 293.4540 deg Mean anomaly: 066.4686 deg Mean motion: 12.43057536 rev/day Decay rate: 1.0e-07 rev/day^2 Epoch rev: 30865 Checksum: 312
Satellite: METEOR-M Catalog number: 35865 Epoch time: 15072.09318373 Element set: 999 Inclination: 098.5131 deg RA of node: 115.8238 deg Eccentricity: 0.0003451 Arg of perigee: 047.1192 deg Mean anomaly: 313.0278 deg Mean motion: 14.21999292 rev/day Decay rate: 1.28e-06 rev/day^2 Epoch rev: 28455 Checksum: 312
Satellite: RS-38 Catalog number: 35869 Epoch time: 15072.14466495 Element set: 999 Inclination: 098.5047 deg RA of node: 115.5506 deg Eccentricity: 0.0005641 Arg of perigee: 039.8238 deg Mean anomaly: 320.3353 deg Mean motion: 14.22277011 rev/day Decay rate: 7.3e-07 rev/day^2 Epoch rev: 28460 Checksum: 315
Satellite: JUGNU Catalog number: 37839 Epoch time: 15072.21540208 Element set: 999 Inclination: 019.9617 deg RA of node: 064.3103 deg Eccentricity: 0.0019166 Arg of perigee: 069.2182 deg Mean anomaly: 029.5049 deg Mean motion: 14.12433329 rev/day Decay rate: 4.71e-06 rev/day^2 Epoch rev: 17663 Checksum: 300
Satellite: SRMSAT Catalog number: 37841 Epoch time: 15071.16710153 Element set: 999 Inclination: 019.9719 deg RA of node: 095.3928 deg Eccentricity: 0.0011798 Arg of perigee: 347.9562 deg Mean anomaly: 077.9158 deg Mean motion: 14.10450973 rev/day Decay rate: 4.43e-06 rev/day^2 Epoch rev: 17623 Checksum: 332
Satellite: RAX-2 Catalog number: 37853 Epoch time: 15071.52389492 Element set: 999 Inclination: 101.7122 deg RA of node: 235.1793 deg Eccentricity: 0.0200772 Arg of perigee: 357.7286 deg Mean anomaly: 041.2139 deg Mean motion: 14.94489021 rev/day Decay rate: 6.172e-05 rev/day^2 Epoch rev: 18266 Checksum: 321
Satellite: AUBIESAT Catalog number: 37854 Epoch time: 15071.91809846 Element set: 999 Inclination: 101.7183 deg RA of node: 238.7495 deg Eccentricity: 0.0197295 Arg of perigee: 352.1859 deg Mean anomaly: 162.0249 deg Mean motion: 14.96425574 rev/day Decay rate: 7.020e-05 rev/day^2 Epoch rev: 18281 Checksum: 346
